sat.trackr.live / text

‹ back to catalog

STARLINK-34670

NORAD 65424 · 2025-192W

PAYLOAD ACTIVE UNKNOWN

§ Identity

Operator
Country
US
Launch date
2025-08-31
Launch site
AFETR
Launch vehicle
Mass (kg)
RCS (m²)

Purposes: comms

External: N2YO · Heavens-Above · Gunter

§ Orbital elements

Epoch: 2026-05-24T16:17:32.583840Z

Period
94.01 min
Inclination
53.1567°
Eccentricity
0.0001093
Mean motion
15.31723082 rev/d
Perigee alt
469.9 km
Apogee alt
471.4 km
Semi-major
6,848.8 km
B*
5.2932e-4
RAAN
239.0211°
Arg perigee
75.2855°
Mean anomaly
284.8268°
Rev number
4,102

§ Raw data

STARLINK-346701 65424U 25192W   26144.67884935  .00016108  00000+0  52932-3 0  99962 65424  53.1567 239.0211 0001093  75.2855 284.8268 15.31723082 41020

JSON: /api/v1/satellites/65424 · /tle

For live sub-satellite position, see the globe view (requires WebGL).

§ Visibility from observer

Set your observer location to see the next 7 days of passes ≥ 10°. The values pass through the URL so the page stays shareable.

No JS? Fill the form by hand. The geolocation button needs JavaScript.